Regional Weather Roundup
Issued by NWS

Home | Current Version | Previous Version | Text Only | Print | Product List | Glossary Off
Versions: 1 2 3 4 5 6 7 8 9 10 11 12 13 14 15 16 17 18 19 20 21 22 23 24 25 26 27 28 29 30 31 32 33 34 35 36 37 38 39 40 41 42 43 44 45 46 47 48 49 50

000
ASUS43 KMKX 231900
RWRWI

WISCONSIN REGIONAL WEATHER ROUNDUP
NATIONAL WEATHER SERVICE MILWAUKEE/SULLIVAN WI
200 PM CDT WED AUG 23 2017

NOTE: "FAIR" INDICATES FEW OR NO CLOUDS BELOW 12,000 FEET WITH NO
SIGNIFICANT WEATHER AND/OR OBSTRUCTIONS TO VISIBILITY.

WIZ001-002-006>008-014>016-023>028-232000-
NORTHWEST WISCONSIN

CITY           SKY/WX    TMP DP  RH WIND       PRES   REMARKS
SUPERIOR ARPT    N/A     66  50  56 NW5       30.07F
ASHLAND        MOSUNNY   64  48  56 N10       30.08F
HAYWARD        MOSUNNY   66  46  48 VRB3      30.08F
SIREN          PTSUNNY   68  45  42 N8G16     30.09S
CUMBERLAND     MOSUNNY   64  46  52 NW8       30.09F
RICE LAKE      MOSUNNY   67  48  51 N8        30.09F
CHETEK         PTSUNNY   68  51  53 N9        30.08F
LADYSMITH      MOSUNNY   67  47  49 NW10G16   30.09F
EAU CLAIRE     NOT AVBL
MENOMONIE      MOSUNNY   70  51  49 NW9       30.08F
NEW RICHMOND   MOSUNNY   69  50  50 N8        30.09F
OSCEOLA        MOSUNNY   70  52  52 W9G16     30.12F
$$

WIZ003>005-009-010-017-018-232000-
NORTH CENTRAL WISCONSIN

CITY           SKY/WX    TMP DP  RH WIND       PRES   REMARKS
MANITOWISH WTR PTSUNNY   63  49  60 N14       30.06S
ARBOR VITAE    MOSUNNY   62  49  61 NW17G23   30.06S
WOODRUFF       MOSUNNY   62  49  61 NW17G23   30.06S
RHINELANDER    MOSUNNY   65  46  50 W10G18    30.05F
EAGLE RIVER    MOSUNNY   64  46  50 NW12G21   30.04S
LAND O LAKES   MOSUNNY   63  46  53 N15G21    30.07S
PHILLIPS       MOSUNNY   65  49  56 N7        30.06F
TOMAHAWK         N/A     64  47  54 NW9G18    30.06F
MEDFORD        MOSUNNY   65  50  58 W8G17     30.06F
MERRILL        PTSUNNY   66  52  59 N8        30.05F
$$

WIZ029-030-035-036-043>047-232000-
CENTRAL WISCONSIN

CITY           SKY/WX    TMP DP  RH WIND       PRES   REMARKS
WAUSAU         MOSUNNY   70  47  43 NW12G21   30.03F
MOSINEE        MOSUNNY   70  48  46 NW13G21   30.06S
MARSHFIELD     PTSUNNY   66  48  52 NW12      30.05F
STEVENS POINT  PTSUNNY   66  48  52 NW8       30.05F
WAUPACA        MOSUNNY   73  48  40 N13       30.04S
WAUTOMA        PTSUNNY   72  50  45 NW12G20   30.04F
WISC RAPIDS    MOSUNNY   71  50  47 NW15      30.06F
CAMP DOUGLAS   NOT AVBL
$$

WIZ011>013-019>022-031-037>040-048>050-232000-
NORTHEAST WISCONSIN

CITY           SKY/WX    TMP DP  RH WIND       PRES   REMARKS
ANTIGO         MOSUNNY   65  49  55 NW9       30.04S
SHAWANO        PTSUNNY   72  51  47 N5        30.01F
OCONTO         PTSUNNY   68  49  49 N8        30.00F
STURGEON BAY   SUNNY     66  50  56 NW10      30.01F
GREEN BAY      MOSUNNY   71  54  54 NW8       30.01S
MANITOWOC      NOT AVBL
APPLETON       PTSUNNY   70  45  40 NW12      30.02R
CLINTONVILLE   PTSUNNY   70  46  43 N8G16     30.02F
OSHKOSH        MOSUNNY   69  50  50 NW12      30.02F
$$

WIZ032>034-041-042-053>061-232000-
SOUTHWEST WISCONSIN

CITY           SKY/WX    TMP DP  RH WIND       PRES   REMARKS
LA CROSSE      MOSUNNY   77  53  43 NW12      30.07F
SPARTA         PTSUNNY   71  52  51 NW9       30.07F
VIROQUA        PTSUNNY   70  53  56 NW10      30.09F
BOSCOBEL       MOSUNNY   77  50  38 NW7       30.07F
PRAIRIE DU CHI MOSUNNY   76  45  32 NW10G20   30.07S
PLATTEVILLE    SUNNY     73  53  49 NW10G18   30.08F
$$

WIZ056-057-062-063-064-067-068-232000-
SOUTH CENTRAL WISCONSIN

CITY           SKY/WX    TMP DP  RH WIND       PRES   REMARKS
REEDSBURG      PTSUNNY   72  50  47 NW13      30.06S
BARABOO/DELLS  PTSUNNY   71  46  40 NW7G17    30.06S
LONE ROCK      NOT AVBL
MINERAL POINT  MOSUNNY   73  52  46 NW9       30.08F
MADISON        PTSUNNY   72  51  47 NW10      30.05S
MIDDLETON      MOSUNNY   72  53  50 NW9       30.06F
WATERTOWN      PTSUNNY   71  53  52 W8        30.04F
MONROE         MOSUNNY   70  50  49 NW12      30.07F
JANESVILLE     MOSUNNY   75  52  43 NW6G16    30.05S
$$

WIZ051-052-058>065-066-070>072-232000-
SOUTHEAST WISCONSIN

CITY           SKY/WX    TMP DP  RH WIND       PRES   REMARKS
MILWAUKEE      PTSUNNY   73  54  51 N10       30.03S
WAUKESHA       PTSUNNY   68  48  49 NW6       30.05S
MILWAUKEE/TIMM CLOUDY    70  45  40 N10       30.04S
RACINE         PTSUNNY   74  52  46 VRB6      30.05S
KENOSHA        MOSUNNY   74  50  42 NW13      30.04S
FOND DU LAC    MOSUNNY   71  48  43 NW8G18    30.03S
SHEBOYGAN      MOSUNNY   71  54  54 VRB5      30.02S
WEST BEND      MOSUNNY   70  48  46 W8        30.03S
JUNEAU         PTSUNNY   69  51  54 W8        30.05F
$$

LSZ147-162-232000-
LAKE SUPERIOR

STATION/POSITION TIME  TEMP    WIND        PRES    WAVE
                       AIR SEA DIR/SP/G            HT/PER
                 (UTC) (F)     (DEG/KT/KT) (MB)    (FT/S)
W MID LAKE BUOY  1750   58 59  300/ 10/ 12 1017.9F   2/ 3
DEVILS ISLAND    1800   59     280/  4/  5 1019.1F
PORT WING        1630   77     290/  5/  7 1019.3
SAXON HARBOR     1840   61      40/ 10/ 12 1018.6S
$$

LMZ867-665-643>646-232000-
LAKE MICHIGAN

STATION/POSITION TIME  TEMP    WIND        PRES    WAVE
                       AIR SEA DIR/SP/G            HT/PER
                 (UTC) (F)     (DEG/KT/KT) (MB)    (FT/S)
S GREEN BAY BUOY 1830   67 70  360/ 10/ 12 1015.9F
N MID LAKE BUOY  1750   62 66  320/ 12/ 14 1015.9R   2/ 4
NORTHPORT PIER   1840   65     330/ 10/ 14 1015.6S
KEWAUNEE LAKESHO 1830   67     290/  5/  8 1015.5R
SHEBOYGAN LAKESH 1800   67     340/  7/  9 1016.3F
PORT WASHINGTON  1840   72     340/  6/ 12 1017.3F
ATWATER BUOY     1709   68 68  350/  8/ 12 1017.0S
MILWAUKEE LAKESH 1830   70     320/  8/ 10   N/A
S MID LAKE BUOY  1750   65 71  340/ 12/ 14 1017.2R   3/ 5
KENOSHA   LAKESH 1800   71     300/ 11/ 15 1016.6
$$

TC  - TEMPERATURE IN CELSIUS
VSB - VISIBILITY IN STATUTE MILES
WCI - WIND CHILL INDEX
HX  - HEAT INDEX





USA.gov is the U.S. government's official web portal to all federal, state and local government web resources and services.